Weather History for Palma de Mallorca, Spain

Change the Weather History Date:

Sunday, April 21, 2013

  Actual Average Record
Temperature  
Mean Temperature 56 °F -  
Max Temperature 67 °F 71 °F 75 °F (1998)
Min Temperature 46 °F 51 °F 41 °F (2001)
Degree Days  
Heating Degree Days 8    
Growing Degree Days 6 (Base 50)    
Moisture  
Dew Point 49 °F    
Average Humidity 71    
Maximum Humidity 88    
Minimum Humidity 45    
Precipitation  
Precipitation 0.00 in 0.04 in - ()
Sea Level Pressure  
Sea Level Pressure 30.09 in    
Wind  
Wind Speed 6 mph ()    
Max Wind Speed 17 mph    
Max Gust Speed -    
Visibility 7.1 miles    
Events      
Averages and records for this station are not official NWS values.
T = Trace of Precipitation, MM = Missing Value Source: Averaged Metar Reports

Daily Weather History Graph

Daily Weather History Graph

Search for Another Location

Airport:

Trip Planner

Search our weather history database for the weather conditions in past years. The results will help you decide how hot, cold, wet, or windy it might be!

Date:

Astronomy

Apr. 21, 2013 Rise Set
Actual Time 7:03 AM CEST 8:32 PM CEST
Civil Twilight 6:34 AM CEST 9:01 PM CEST
Nautical Twilight 6:00 AM CEST 9:35 PM CEST
Astronomical Twilight 5:24 AM CEST 10:11 PM CEST
Moon 4:03 PM CEST (4/21) 4:15 AM CEST (4/21)
Length of Visible Light 14h 26m
Length of Day
13h 29m
Waxing Gibbous, 77% of the Moon is Illuminated
Apr 21
Waxing Gibbous
Apr 25
Full
May 2
Last Quarter
May 10
New
May 18
First Quarter

Hourly Weather History & Observations

Time (CEST) Temp. Dew Point Humidity Pressure Visibility Wind Dir Wind Speed Gust Speed Precip Events Conditions
12:00 AM 59.0 °F 48.2 °F 67% 30.15 in 6.2 mi SW 8.1 mph - N/A   Partly Cloudy
12:30 AM 59.0 °F 48.2 °F 67% 30.15 in 6.2 mi SSW 4.6 mph - N/A   Partly Cloudy
1:00 AM 59.0 °F 48.2 °F 67% 30.15 in 6.2 mi SW 9.2 mph - N/A   Partly Cloudy
1:30 AM 59.0 °F 48.2 °F 67% 30.15 in 6.2 mi SW 6.9 mph - N/A   Partly Cloudy
2:00 AM 58 °F 46 °F 53% 30.15 in 12 mi SW 6.9 mph - -   Scattered Clouds
2:00 AM 57.2 °F 48.2 °F 72% 30.15 in 6.2 mi South 1.2 mph - N/A   Partly Cloudy
2:30 AM 59.0 °F 48.2 °F 67% 30.12 in 6.2 mi Calm Calm - N/A   Partly Cloudy
3:00 AM 57.2 °F 46.4 °F 67% 30.12 in 6.2 mi Calm Calm - N/A   Partly Cloudy
3:30 AM 51.8 °F 44.6 °F 76% 30.12 in 6.2 mi ENE 5.8 mph - N/A   Partly Cloudy
4:00 AM 51.8 °F 46.4 °F 82% 30.12 in 6.2 mi Variable 1.2 mph - N/A   Partly Cloudy
5:00 AM 48.2 °F 44.6 °F 87% 30.09 in 6.2 mi Calm Calm - N/A   Partly Cloudy
5:30 AM 48.2 °F 44.6 °F 87% 30.09 in 6.2 mi NE 2.3 mph - N/A   Partly Cloudy
6:00 AM 48.2 °F 44.6 °F 87% 30.09 in 6.2 mi NE 1.2 mph - N/A   Partly Cloudy
6:30 AM 48.2 °F 44.6 °F 87% 30.09 in 6.2 mi Calm Calm - N/A   Partly Cloudy
7:00 AM 46.4 °F 42.8 °F 87% 30.09 in 6.2 mi Variable 2.3 mph - N/A   Partly Cloudy
7:30 AM 48.2 °F 44.6 °F 87% 30.09 in 6.2 mi Calm Calm - N/A   Partly Cloudy
8:00 AM 52 °F 46 °F 72% 30.12 in 19 mi Calm Calm - -   Scattered Clouds
8:00 AM 48.2 °F 44.6 °F 87% 30.09 in 6.2 mi Calm Calm - N/A   Partly Cloudy
8:30 AM 53.6 °F 48.2 °F 82% 30.09 in 6.2 mi NE 1.2 mph - N/A   Partly Cloudy
9:00 AM 59.0 °F 50.0 °F 72% 30.09 in 6.2 mi Calm Calm - N/A   Partly Cloudy
9:30 AM 60.8 °F 50.0 °F 68% 30.09 in 6.2 mi Variable 2.3 mph - N/A   Partly Cloudy
10:00 AM 62.6 °F 48.2 °F 59% 30.09 in 6.2 mi WSW 9.2 mph - N/A   Partly Cloudy
10:30 AM 64.4 °F 50.0 °F 59% 30.09 in 6.2 mi SW 11.5 mph - N/A   Partly Cloudy
11:00 AM 64.4 °F 50.0 °F 59% 30.09 in 6.2 mi WSW 11.5 mph - N/A   Partly Cloudy
11:30 AM 64.4 °F 48.2 °F 56% 30.09 in 6.2 mi SW 12.7 mph - N/A   Partly Cloudy
12:30 PM 64.4 °F 50.0 °F 59% 30.09 in 6.2 mi SW 13.8 mph - N/A   Scattered Clouds
1:00 PM 66.2 °F 50.0 °F 56% 30.09 in 6.2 mi SW 13.8 mph - N/A   Partly Cloudy
2:00 PM 65 °F 49 °F 45% 30.09 in 19 mi SW 17.3 mph - -   Partly Cloudy
2:00 PM 64.4 °F 50.0 °F 59% 30.06 in 6.2 mi SW 16.1 mph - N/A   Partly Cloudy
2:30 PM 62.6 °F 51.8 °F 68% 30.06 in 6.2 mi SW 16.1 mph - N/A   Partly Cloudy
3:00 PM 62.6 °F 51.8 °F 68% 30.06 in 6.2 mi SW 16.1 mph - N/A   Partly Cloudy
3:30 PM 62.6 °F 51.8 °F 68% 30.06 in 6.2 mi SW 16.1 mph - N/A   Partly Cloudy
4:00 PM 62.6 °F 51.8 °F 68% 30.06 in 6.2 mi SW 13.8 mph - N/A   Partly Cloudy
4:30 PM 62.6 °F 50.0 °F 63% 30.04 in 6.2 mi SW 15.0 mph - N/A   Partly Cloudy
5:00 PM 66.2 °F 50.0 °F 56% 30.04 in 6.2 mi SW 16.1 mph - N/A   Partly Cloudy
5:30 PM 64.4 °F 50.0 °F 59% 30.04 in 6.2 mi SW 17.3 mph - N/A   Partly Cloudy
6:30 PM 62.6 °F 50.0 °F 63% 30.04 in 6.2 mi WSW 15.0 mph - N/A   Partly Cloudy
7:00 PM 62.6 °F 50.0 °F 63% 30.04 in 6.2 mi West 9.2 mph - N/A   Partly Cloudy
7:30 PM 60.8 °F 51.8 °F 72% 30.04 in 6.2 mi NW 3.5 mph - N/A   Partly Cloudy
8:00 PM 60 °F 49 °F 58% 30.05 in 19 mi ENE 11.5 mph - -   Partly Cloudy
8:00 PM 59.0 °F 51.8 °F 77% 30.04 in 6.2 mi ENE 11.5 mph - N/A   Partly Cloudy
8:30 PM 59.0 °F 51.8 °F 77% 30.04 in 6.2 mi East 8.1 mph - N/A   Partly Cloudy
9:00 PM 57.2 °F 51.8 °F 82% 30.06 in 6.2 mi ENE 10.4 mph - N/A   Scattered Clouds
9:30 PM 55.4 °F 50.0 °F 82% 30.06 in 6.2 mi ENE 5.8 mph - N/A   Scattered Clouds
10:00 PM 55.4 °F 50.0 °F 82% 30.06 in 6.2 mi NE 9.2 mph - N/A   Scattered Clouds
10:30 PM 53.6 °F 50.0 °F 88% 30.09 in 6.2 mi NE 5.8 mph - N/A   Scattered Clouds
11:00 PM 53.6 °F 50.0 °F 88% 30.09 in 6.2 mi NE 6.9 mph - N/A   Scattered Clouds
11:30 PM 53.6 °F 50.0 °F 88% 30.09 in 6.2 mi NE 6.9 mph - N/A   Scattered Clouds